Location: Presov
(49.0000°N, 21.2500°E)
Time: 03:58:40
(UTC+02:00)

ISS - Visible Passes

Search period start: 01 July 2022 00:00
Search period end: 11 July 2022 00:00
Orbit: 414 x 420 km, 51.6° (Epoch: 30 June)

Date Brightness Start Highest point End Pass type
(mag) Time Alt. Az. Time Alt. Az. Time Alt. Az.
01 Jul -3.4 03:22:08 13° SW 03:24:55 50° SSE 03:28:13 10° ENE visible
02 Jul -2.9 02:35:35 25° S 02:36:50 34° SSE 02:39:55 10° E visible
03 Jul -2.3 01:48:58 23° SE 01:48:58 23° SE 01:51:30 10° E visible
03 Jul -3.8 03:21:52 10° WSW 03:25:14 87° NNW 03:28:37 10° ENE visible
04 Jul -1.3 01:02:17 12° ESE 01:02:17 12° ESE 01:02:47 10° E visible
04 Jul -3.8 02:35:10 24° SW 02:37:02 69° SSE 02:40:24 10° ENE visible
05 Jul -3.5 01:48:26 44° S 01:48:52 48° SSE 01:52:07 10° ENE visible
05 Jul -3.2 03:22:17 10° W 03:25:36 59° N 03:28:57 10° ENE visible
06 Jul -2.4 01:01:38 27° ESE 01:01:38 27° ESE 01:03:46 10° E visible
06 Jul -3.5 02:34:31 14° W 02:37:19 71° NNW 02:40:41 10° ENE visible
07 Jul -1.3 00:14:46 13° E 00:14:46 13° E 00:15:15 10° E visible
07 Jul -3.9 01:47:38 33° WSW 01:49:02 90° NNW 01:52:25 10° ENE visible
07 Jul -2.9 03:22:41 10° WNW 03:25:59 51° N 03:29:17 10° ENE visible
08 Jul -3.9 01:00:41 66° SSE 01:00:46 67° SSE 01:04:07 10° ENE visible
08 Jul -3.0 02:34:19 10° W 02:37:38 54° N 02:40:57 10° ENE visible
09 Jul -2.7 00:13:35 33° E 00:13:35 33° E 00:15:47 10° ENE visible
09 Jul -3.3 01:46:26 13° W 01:49:17 60° N 01:52:37 10° ENE visible
09 Jul -3.1 03:22:57 10° WNW 03:26:17 58° N 03:29:38 10° E visible
09 Jul -1.8 23:26:16 17° E 23:26:16 17° E 23:27:22 10° E visible
10 Jul -3.6 00:59:06 25° W 01:00:56 73° NNW 01:04:17 10° ENE visible
10 Jul -2.9 02:34:37 10° WNW 02:37:55 53° N 02:41:14 10° E visible
10 Jul -1.4 22:38:28 12° E 22:38:28 12° E 22:38:46 10° E visible
